Location: Burbank
(38.7788°N, 114.0429°W)
Time: 21:04:18
(UTC+00:00)

S-56A Canister/Altair - Pass Details

Date: 11 May 2026
Orbit: 632 x 2484 km, 38.9° (Epoch: 8 June)

Event Time Altitude Azimuth Distance (km) Brightness Sun altitude
Rises 08:40:38 0° 279° (W) 3,154 - -31.1°
Reaches altitude 10° 08:42:43 10° 278° (W) 2,355 - -31.0°
Maximum altitude 08:48:11 79° 193° (SSW) 1,015 - -30.6°
Exits shadow 08:50:03 51° 118° (ESE) 1,326 8.5 -30.5°
Drops below altitude 10° 08:56:19 10° 108° (ESE) 3,441 10.9 -30.0°
Sets 08:59:57 0° 107° (ESE) 4,726 11.6 -29.7°
